Back to catalog

SL-8 DEB

AliveLEO
NORAD 17754·DEBRIS·🇷🇺 Russia

Launched Sep 4, 1985 from Plesetsk Cosmodrome

Loading…

Next Passes (next 24 hours)

TLE

FreshSource: Space-Track

Epoch: Sep 14, 2026, 04:21 UTC

1 17754U 85079C   26257.18130681  .00000890  00000-0  22166-3 0  9990
2 17754  74.0336 257.6455 0015969 303.5394 180.3028 14.53097421152950

Track SL-8 DEB in real time with AllMySat

Download on the App Store